Погода в Давао

Филиппины     7°07′09″N   125°36′51″E
темп.,
°C
ветер,
м/с
пор.,
м/с
влажн.,
%
обл.,
%
осадки,
мм/ч
давл.,
гПа
погр.,
м
14 июня, пн
пн1423:00+24з228123 0.5 101357
02:00+24сз2278100 1.0 101183
05:00+24сз22805 0.0 1011109
08:00+26ссв1174100 0.0 1013288
11:00+27вюв217562 0.7 1011450
14:00+28юв226786 0.9 1009496
17:00+28ююв227064 0.3 1009303
20:00+26юз2274100 0.4 1011347
15 июня, вт
вт1523:00+25зюз2278100 0.2 1012115
02:00+24ююз3486100 4.1 1010287
05:00+24ю248677 2.3 1011316
08:00+26ююв2380100 3.2 1012583
11:00+27юв43756 0.3 1011671
14:00+28юв337174 0.7 1009550
17:00+27ююв237533 0.1 1009392
20:00+25юз227713 0.1 1011320
16 июня, ср
ср1623:00+25зюз23795 0.1 1012305
02:00+24юз128215 1.6 1010446
05:00+24з118445 0.5 1011142
08:00+25вюв128758 3.3 1012185
11:00+26ююв248299 1.7 1012463
14:00+26ю2379100 1.9 1010468
17:00+26ю237821 0.1 1011400
20:00+25юз237910 0.1 1013344
17 июня, чт
чт1723:00+24зюз33868 0.7 1013160
02:00+24юз23865 3.0 1011246
05:00+23зюз118718 2.1 101239
08:00+26юв128370 4.4 1013228
11:00+26ююв2381100 3.3 1012394
14:00+26сз1183100 4.5 1010191
17:00+26ююв1279100 0.0 1010233
20:00+25зсз118293 0.0 1012102
18 июня, пт
пт1823:00+24зсз21825 0.0 101358
02:00+24зсз228183 0.4 101181
05:00+23зсз218262 1.2 101275
08:00+26вюв127697 1.4 1013317
11:00+27юв347792 0.6 1012497
14:00+28ююв3471100 1.0 1010670
17:00+27ю347695 0.3 1010561
20:00+25ююз3479100 0.7 1012398